Location: Newark
(41.6500°N, 71.4833°W)
Time: 21:56:45
(UTC+00:00)

A-11 Canister half - Pass Details

Date: 20 January 2020
Orbit: 1517 x 1683 km, 47.2° (Epoch: 19 February)

Event Time Altitude Azimuth Distance (km) Brightness Sun altitude
Rises 08:36:59 0° 277° (W) 4,676 - -39.1°
Reaches altitude 10° 08:40:06 10° 280° (W) 3,685 - -38.6°
Exits shadow 08:49:16 62° 1° (N) 1,678 9.0 -36.9°
Maximum altitude 08:49:16 62° 1° (N) 1,678 9.0 -36.9°
Drops below altitude 10° 08:58:30 10° 82° (E) 3,708 11.8 -35.1°
Sets 09:01:39 0° 86° (E) 4,707 12.6 -34.6°
